Location: Most
(50.5330°N, 13.6500°E)
Time: 00:03:01
(UTC+02:00)

ISS - Visible Passes

Search period start: 06 May 2021 00:00
Search period end: 16 May 2021 00:00
Orbit: 418 x 421 km, 51.6° (Epoch: 05 May)

Date Brightness Start Highest point End Pass type
(mag) Time Alt. Az. Time Alt. Az. Time Alt. Az.
06 May -3.4 02:48:19 48° SE 02:48:19 48° SE 02:51:21 10° ENE visible
06 May -3.6 04:21:27 10° W 04:24:50 74° N 04:28:13 10° E visible
07 May -1.8 02:02:24 21° E 02:02:24 21° E 02:03:51 10° E visible
07 May -3.7 03:35:20 22° W 03:37:22 82° N 03:40:47 10° ENE visible
08 May -3.9 02:49:24 60° WSW 02:49:56 85° SSE 02:53:20 10° ENE visible
08 May -3.5 04:23:28 10° W 04:26:51 72° N 04:30:14 10° E visible
09 May -3.0 02:03:25 43° E 02:03:25 43° E 02:05:53 10° ENE visible
09 May -3.5 03:36:21 12° W 03:39:22 71° N 03:42:46 10° E visible
10 May -1.5 01:17:25 18° E 01:17:25 18° E 01:18:25 10° ENE visible
10 May -3.6 02:50:21 29° W 02:51:54 73° N 02:55:17 10° E visible
10 May -3.8 04:25:25 10° WNW 04:28:50 88° S 04:32:13 10° ESE visible
11 May -3.8 02:04:19 79° NW 02:04:26 81° N 02:07:50 10° ENE visible
11 May -3.7 03:37:59 10° WNW 03:41:22 80° N 03:44:46 10° E visible
12 May -2.6 01:18:14 36° ENE 01:18:14 36° ENE 01:20:22 10° ENE visible
12 May -3.6 02:51:09 15° W 02:53:54 73° N 02:57:17 10° E visible
12 May -3.6 04:27:23 10° WNW 04:30:41 53° SSW 04:33:59 10° SE visible
13 May -1.5 00:32:03 17° E 00:32:03 17° E 00:32:55 10° ENE visible
13 May -3.5 02:04:58 31° WNW 02:06:24 71° N 02:09:48 10° E visible
13 May -3.9 03:39:54 10° WNW 03:43:17 71° SSW 03:46:39 10° ESE visible
14 May -3.6 01:18:34 64° WNW 01:18:55 73° N 01:22:18 10° E visible
14 May -3.9 02:52:27 10° WNW 02:55:51 88° S 02:59:13 10° ESE visible
14 May -2.8 04:29:28 10° W 04:32:24 27° SSW 04:35:19 10° SSE visible
14 May -3.3 22:51:39 10° SW 22:54:46 36° SSE 22:57:55 10° E visible
15 May -3.8 00:28:03 10° W 00:31:26 81° N 00:34:50 10° ENE visible
15 May -3.7 02:04:59 10° WNW 02:08:22 80° N 02:11:46 10° E visible
15 May -3.3 03:41:53 10° W 03:45:04 38° SSW 03:48:14 10° SE visible
15 May -2.8 22:04:34 10° SSW 22:07:26 26° SE 22:10:18 10° E visible
15 May -3.9 23:40:36 10° WSW 23:43:58 86° SSE 23:47:22 10° ENE visible
